Location: Moonridge Observatory
(39.2268°N, 77.7914°W)
Time: 13:12:04
(UTC-04:00)

Amateur Radio Satellites - All Passes

Search period start: 30 July 2014 12:42
Search period end: 31 July 2014 12:42
Location: Moonridge Observatory, 39.2268°N, 77.7914°W

Satellite Date Start Highest point End Downlink Frequencies (MHz)
Time Altitude Azimuth
JAS-1B 30 Jul 12:42:40 12:47:00 14° 47° (NE) 12:51:26 435.800 - 435.900 CW/SSB
FUNcube-1 30 Jul 12:48:10 12:50:56 17° 293° (WNW) 12:53:43 145.950 - 145.970 MHz USB
Uribyol 2 30 Jul 13:10:09 13:13:04 15° 62° (ENE) 13:15:59 436.500 FM
AO-27 30 Jul 13:10:46 13:13:38 15° 61° (ENE) 13:16:30 436.795 MHz FM
SO-50 30 Jul 13:19:05 13:23:19 41° 307° (NW) 13:27:38 436.795 FM
UOSAT-12 30 Jul 13:32:18 13:35:40 21° 110° (ESE) 13:39:06 437.025 FM, 437.400 FM
Oscar 19 30 Jul 13:35:12 13:40:08 52° 72° (ENE) 13:45:06 437.125 CW, 437.150 USB
KITSAT 1 30 Jul 13:36:28 13:42:05 20° 36° (NE) 13:47:40 435.175 FM
AO-Echo 30 Jul 13:40:06 13:44:35 29° 67° (ENE) 13:49:04 ?
Gurwin Techsat 1B 30 Jul 13:42:45 13:44:41 12° 59° (ENE) 13:46:37 435.225 FM
Oscar 16 30 Jul 14:03:40 14:08:47 80° 257° (WSW) 14:13:56 437.025 USB, Beacon 2401.1428
JAS-1B 30 Jul 14:26:32 14:35:13 57° 67° (ENE) 14:44:47 435.800 - 435.900 CW/SSB
ITAMSAT 1 30 Jul 14:27:40 14:32:52 77° 75° (ENE) 14:38:06 435.822 SSB
RS-15 30 Jul 14:34:16 14:45:21 68° 305° (NW) 14:56:16 29.354 - 29.394 USB, Beacon 29.352 USB
AO-7 30 Jul 14:46:36 14:52:01 19° 52° (NE) 14:57:26 29.400 - 29.500 MHz
Uribyol 2 30 Jul 14:46:48 14:51:57 67° 258° (WSW) 14:57:08 436.500 FM
AO-27 30 Jul 14:47:20 14:52:32 69° 258° (WSW) 14:57:46 436.795 MHz FM
TMSAT-1 30 Jul 14:53:37 14:58:30 39° 70° (ENE) 15:03:25 436.925 FM
Saudisat 1A 30 Jul 15:07:53 15:10:04 13° 41° (NE) 15:12:14 436.775 MHz
UOSAT-12 30 Jul 15:11:07 15:15:30 43° 307° (NW) 15:19:59 437.025 FM, 437.400 FM
Oscar 19 30 Jul 15:16:26 15:19:46 17° 268° (W) 15:23:07 437.125 CW, 437.150 USB
AO-Echo 30 Jul 15:18:21 15:23:10 35° 263° (W) 15:28:02 ?
Gurwin Techsat 1B 30 Jul 15:18:33 15:23:52 88° 256° (WSW) 15:29:13 435.225 FM
KITSAT 1 30 Jul 15:30:52 15:38:59 73° 59° (ENE) 15:47:01 435.175 FM
Uosat F 30 Jul 15:39:06 15:43:04 24° 66° (ENE) 15:47:03 435.120 FM
ITAMSAT 1 30 Jul 16:11:04 16:12:54 12° 270° (W) 16:14:44 435.822 SSB
JAS-1B 30 Jul 16:17:57 16:25:56 37° 267° (W) 16:34:47 435.800 - 435.900 CW/SSB
TMSAT-1 30 Jul 16:34:15 16:38:31 24° 266° (W) 16:42:48 436.925 FM
AO-7 30 Jul 16:35:15 16:43:37 85° 71° (ENE) 16:52:02 29.400 - 29.500 MHz
OPAL 30 Jul 16:36:50 16:41:10 27° 98° (E) 16:45:31 ?
Saudisat 1A 30 Jul 16:45:49 16:50:14 83° 240° (WSW) 16:54:37 436.775 MHz
RS-15 30 Jul 16:51:53 17:00:12 24° 333° (NNW) 17:08:33 29.354 - 29.394 USB, Beacon 29.352 USB
Uosat F 30 Jul 17:16:56 17:21:37 38° 262° (W) 17:26:20 435.120 FM
KITSAT 1 30 Jul 17:27:39 17:33:33 23° 257° (WSW) 17:39:27 435.175 FM
JAS-2 30 Jul 18:00:40 18:08:05 50° 70° (ENE) 18:15:00 435.800 - 435.900 CW/SSB, 435.910 FM
OPAL 30 Jul 18:15:29 18:20:02 34° 293° (WNW) 18:24:38 ?
AO-7 30 Jul 18:31:50 18:37:16 19° 268° (W) 18:42:44 29.400 - 29.500 MHz
Hamsat 30 Jul 18:33:16 18:37:26 77° 258° (WSW) 18:41:39 145.90 MHz
STRAND 1 30 Jul 19:03:09 19:06:59 21° 94° (E) 19:10:48 ?
RS-15 30 Jul 19:11:26 19:18:19 18° 11° (N) 19:25:15 29.354 - 29.394 USB, Beacon 29.352 USB
SO-67 30 Jul 19:23:24 19:26:47 55° 76° (ENE) 19:30:12 435.3500 MHz FM
HO-68 30 Jul 19:23:38 19:26:16 12° 51° (NE) 19:28:54 435.675 MHz FM
JAS-2 30 Jul 19:46:17 19:53:09 33° 265° (W) 19:59:41 435.800 - 435.900 CW/SSB, 435.910 FM
SO-50 30 Jul 20:11:45 20:15:02 18° 44° (NE) 20:18:21 436.795 FM
MaSat-1 30 Jul 20:37:13 20:40:39 28° 104° (ESE) 20:44:33 437.345 MHz
STRAND 1 30 Jul 20:41:32 20:46:20 42° 290° (WNW) 20:51:06 ?
AO-40 30 Jul 20:50:45 03:57:03 40° 183° (S) 09:29:41 Beacon 2401.320
UKube-1 30 Jul 20:56:49 21:00:29 27° 68° (ENE) 21:04:10 145.840 MHz, 145.915 MHz
HO-68 30 Jul 21:05:33 21:12:38 67° 70° (ENE) 21:19:43 435.675 MHz FM
RS-15 30 Jul 21:24:45 21:34:58 41° 43° (NE) 21:45:26 29.354 - 29.394 USB, Beacon 29.352 USB
Oscar 11 30 Jul 21:39:35 21:43:33 38° 72° (ENE) 21:47:32 145.825 FM, Beacon 2401.500 USB
SO-50 30 Jul 21:51:18 21:56:01 64° 242° (WSW) 22:00:47 436.795 FM
UOSAT-12 30 Jul 22:02:28 22:05:35 17° 43° (NE) 22:08:42 437.025 FM, 437.400 FM
FUNcube-1 30 Jul 22:06:45 22:10:22 27° 70° (ENE) 22:13:57 145.950 - 145.970 MHz USB
MaSat-1 30 Jul 22:14:15 22:17:53 27° 306° (NW) 22:21:58 437.345 MHz
UKube-1 30 Jul 22:32:59 22:36:37 25° 264° (W) 22:40:16 145.840 MHz, 145.915 MHz
ISS 30 Jul 22:52:21 22:55:33 45° 137° (SE) 22:58:46 145.800 FM
HO-68 30 Jul 22:55:33 23:00:49 22° 267° (W) 23:06:07 435.675 MHz FM
Oscar 11 30 Jul 23:17:00 23:19:52 17° 267° (W) 23:22:44 145.825 FM, Beacon 2401.500 USB
RS-15 30 Jul 23:37:02 23:47:53 64° 246° (WSW) 23:59:10 29.354 - 29.394 USB, Beacon 29.352 USB
UOSAT-12 30 Jul 23:41:31 23:46:13 68° 241° (WSW) 23:50:50 437.025 FM, 437.400 FM
FUNcube-1 30 Jul 23:43:15 23:46:44 24° 265° (W) 23:50:10 145.950 - 145.970 MHz USB
Sapphire 30 Jul 23:44:37 23:48:36 21° 106° (ESE) 23:52:35 437.095 MHz 1200 baud AX-25 AFSK
PCSat 31 Jul 00:16:26 00:21:32 45° 112° (ESE) 00:26:41 145.825 MHz
ISS 31 Jul 00:29:36 00:32:24 24° 334° (NNW) 00:35:12 145.800 FM
Sapphire 31 Jul 01:26:23 01:31:37 50° 303° (WNW) 01:36:54 437.095 MHz 1200 baud AX-25 AFSK
Oscar 19 31 Jul 01:48:41 01:52:27 20° 93° (E) 01:56:13 437.125 CW, 437.150 USB
RS-15 31 Jul 01:55:33 01:57:58 11° 265° (W) 02:00:25 29.354 - 29.394 USB, Beacon 29.352 USB
PCSat 31 Jul 02:00:37 02:05:08 26° 310° (NW) 02:09:40 145.825 MHz
ISS 31 Jul 02:09:20 02:10:04 11° 354° (N) 02:10:48 145.800 FM
Oscar 16 31 Jul 02:16:38 02:21:28 39° 98° (E) 02:26:18 437.025 USB, Beacon 2401.1428
JAS-1B 31 Jul 02:16:58 02:22:32 18° 84° (E) 02:27:35 435.800 - 435.900 CW/SSB
Oscar 10/S400 31 Jul 02:17:55 03:03:06 64° 195° (SSW) 11:59:20 145.825 - 145.975 CW/USB, Beacon 145.810 USB
ITAMSAT 1 31 Jul 02:42:11 02:46:41 29° 96° (E) 02:51:08 435.822 SSB
Uribyol 2 31 Jul 03:00:43 03:05:42 47° 100° (E) 03:10:39 436.500 FM
AO-27 31 Jul 03:01:38 03:06:37 46° 99° (E) 03:11:34 436.795 MHz FM
TMSAT-1 31 Jul 03:11:34 03:14:55 17° 92° (E) 03:18:15 436.925 FM
AO-Echo 31 Jul 03:26:31 03:31:35 86° 103° (ESE) 03:36:26 ?
Oscar 19 31 Jul 03:27:04 03:31:59 46° 289° (WNW) 03:36:55 437.125 CW, 437.150 USB
Gurwin Techsat 1B 31 Jul 03:36:07 03:41:07 40° 98° (E) 03:46:04 435.225 FM
ISS 31 Jul 03:46:19 03:47:59 13° 14° (NNE) 03:49:39 145.800 FM
OPAL 31 Jul 03:50:47 03:55:26 43° 69° (ENE) 04:00:07 ?
Oscar 16 31 Jul 03:56:29 04:00:35 24° 294° (WNW) 04:04:41 437.025 USB, Beacon 2401.1428
JAS-1B 31 Jul 04:05:06 04:14:26 90° 286° (WNW) 04:22:15 435.800 - 435.900 CW/SSB
ITAMSAT 1 31 Jul 04:21:35 04:26:07 32° 292° (WNW) 04:30:38 435.822 SSB
AO-7 31 Jul 04:38:52 04:45:57 30° 96° (E) 04:52:57 29.400 - 29.500 MHz
Uribyol 2 31 Jul 04:41:05 04:44:49 21° 296° (WNW) 04:48:33 436.500 FM
AO-27 31 Jul 04:41:58 04:45:47 21° 296° (WNW) 04:49:35 436.795 MHz FM
TMSAT-1 31 Jul 04:50:00 04:55:11 56° 287° (WNW) 05:00:20 436.925 FM
PANSAT 31 Jul 05:01:14 05:03:32 15° 173° (S) 05:05:50 not established
AO-Echo 31 Jul 05:08:11 05:09:32 11° 301° (WNW) 05:10:52 ?
Gurwin Techsat 1B 31 Jul 05:16:36 05:20:49 25° 294° (WNW) 05:25:02 435.225 FM
ISS 31 Jul 05:22:07 05:25:22 45° 33° (NNE) 05:28:37 145.800 FM
Uosat F 31 Jul 05:25:18 05:30:19 71° 102° (ESE) 05:35:18 435.120 FM
OPAL 31 Jul 05:30:55 05:34:30 20° 264° (W) 05:38:07 ?
JAS-1B 31 Jul 05:57:04 06:03:29 22° 307° (NW) 06:09:21 435.800 - 435.900 CW/SSB
KITSAT 1 31 Jul 05:57:28 06:05:22 60° 113° (ESE) 06:13:17 435.175 FM
STRAND 1 31 Jul 06:17:58 06:22:20 29° 67° (ENE) 06:26:42 ?
Hamsat 31 Jul 06:20:45 06:24:00 21° 94° (E) 06:27:15 145.90 MHz
AO-7 31 Jul 06:30:58 06:39:04 58° 294° (WNW) 06:47:06 29.400 - 29.500 MHz
MaSat-1 31 Jul 06:32:40 06:37:55 59° 62° (ENE) 06:42:48 437.345 MHz
PANSAT 31 Jul 06:40:42 06:43:04 16° 186° (S) 06:45:25 not established
Saudisat 1A 31 Jul 06:51:34 06:55:30 32° 114° (ESE) 06:59:27 436.775 MHz
JAS-2 31 Jul 06:57:37 07:02:59 39° 96° (E) 07:07:54 435.800 - 435.900 CW/SSB, 435.910 FM
ISS 31 Jul 06:59:25 07:01:52 19° 229° (SW) 07:04:18 145.800 FM
Uosat F 31 Jul 07:06:02 07:08:29 14° 299° (WNW) 07:10:56 435.120 FM
KITSAT 1 31 Jul 07:54:00 08:01:10 34° 313° (NW) 08:08:24 435.175 FM
Hamsat 31 Jul 07:56:09 08:00:00 32° 289° (WNW) 08:03:52 145.90 MHz
STRAND 1 31 Jul 07:56:49 08:01:24 33° 263° (W) 08:06:01 ?
MaSat-1 31 Jul 08:11:24 08:14:39 17° 260° (W) 08:17:45 437.345 MHz
SO-67 31 Jul 08:21:12 08:24:42 81° 102° (ESE) 08:28:10 435.3500 MHz FM
AO-7 31 Jul 08:27:03 08:30:04 12° 314° (NW) 08:33:06 29.400 - 29.500 MHz
Saudisat 1A 31 Jul 08:31:20 08:35:05 27° 311° (NW) 08:38:52 436.775 MHz
Sapphire 31 Jul 08:33:07 08:36:35 17° 45° (NE) 08:40:03 437.095 MHz 1200 baud AX-25 AFSK
HO-68 31 Jul 08:38:28 08:40:16 11° 88° (E) 08:42:04 435.675 MHz FM
JAS-2 31 Jul 08:43:09 08:47:50 26° 296° (WNW) 08:52:12 435.800 - 435.900 CW/SSB, 435.910 FM
PCSat 31 Jul 09:05:29 09:10:15 30° 52° (NE) 09:15:00 145.825 MHz
KITSAT 1 31 Jul 09:57:41 09:59:36 11° 341° (NNW) 10:01:31 435.175 FM
Sapphire 31 Jul 10:15:13 10:20:40 80° 244° (WSW) 10:26:04 437.095 MHz 1200 baud AX-25 AFSK
UKube-1 31 Jul 10:21:30 10:25:48 57° 101° (E) 10:30:03 145.840 MHz, 145.915 MHz
HO-68 31 Jul 10:21:50 10:29:01 76° 105° (ESE) 10:36:08 435.675 MHz FM
PCSat 31 Jul 10:48:44 10:53:43 38° 250° (WSW) 10:58:39 145.825 MHz
Oscar 11 31 Jul 11:03:54 11:08:15 89° 283° (WNW) 11:12:36 145.825 FM, Beacon 2401.500 USB
FUNcube-1 31 Jul 11:32:19 11:36:30 68° 101° (ESE) 11:40:43 145.950 - 145.970 MHz USB
RS-15 31 Jul 11:50:25 11:58:19 23° 101° (ESE) 12:06:02 29.354 - 29.394 USB, Beacon 29.352 USB
UKube-1 31 Jul 11:59:29 12:01:30 13° 297° (WNW) 12:03:31 145.840 MHz, 145.915 MHz
SO-50 31 Jul 12:05:17 12:09:37 53° 117° (ESE) 12:14:02 436.795 FM
HO-68 31 Jul 12:10:57 12:15:57 21° 303° (WNW) 12:20:57 435.675 MHz FM
